Mitchell, SD

1:23 PM CDT on September 18, 2019 (GMT -0500)
Mitchell Municipal

Weather History for KMHE - July, 2019

Change the Weather History Date:

Thursday, July 25, 2019

  Actual Average Record
Temperature  
Mean Temperature 77 °F 75 °F  
Max Temperature 89 °F 86 °F 108 °F (1931)
Min Temperature 66 °F 63 °F 45 °F (1900)
Degree Days  
Heating Degree Days 0 0  
Month to date heating degree days 0  
Since 1 June heating degree days 35  
Since 1 July heating degree days 0  
Cooling Degree Days 12 10  
Month to date cooling degree days 248  
Year to date cooling degree days 458  
Since 1 June cooling degree days 418  
Growing Degree Days 27 (Base 50)    
Moisture  
Dew Point 64 °F    
Average Humidity 67    
Maximum Humidity 84    
Minimum Humidity 48    
Precipitation  
Precipitation 0.08 in 0.09 in 1.14 in (2017)
Month to date precipitation 2.54  
Year to date precipitation 13.40  
Snow  
Snow 0.00 in - 0.00 in ()
Month to date snowfall  
Since 1 June snowfall  
Since 1 July snowfall  
Snow Depth -    
Sea Level Pressure  
Sea Level Pressure 29.91 in    
Wind  
Wind Speed 12 mph (SSE)    
Max Wind Speed 16 mph    
Max Gust Speed 21 mph    
Visibility 10 miles    
Events Rain , Thunderstorm    
T = Trace of Precipitation, MM = Missing Value Source: NWS Daily Summary

Daily Weather History Graph

Daily Weather History Graph

Search for Another Location

Airport or City:

Astronomy

Jul. 25, 2019 Rise Set
Actual Time 6:13 AM CDT 9:03 PM CDT
Civil Twilight 5:39 AM CDT 9:36 PM CDT
Nautical Twilight 4:57 AM CDT 10:19 PM CDT
Astronomical Twilight 4:07 AM CDT 11:08 PM CDT
Moon 1:05 AM CDT (7/25) 2:41 PM CDT (7/25)
Length of Visible Light 15h 57m
Length of Day
14h 49m
Last Quarter, 44% of the Moon is Illuminated
Jul 25
Last Quarter
Jul 31
New
Aug 7
First Quarter
Aug 15
Full
Aug 23
Last Quarter

Hourly Weather History & Observations

Time (CDT) Temp. Heat Index Dew Point Humidity Pressure Visibility Wind Dir Wind Speed Gust Speed Precip Events Conditions
12:53 AM 72.0 °F - 62.1 °F 71% 29.97 in 10.0 mi SSE 12.7 mph - N/A   Clear
1:53 AM 72.0 °F - 62.1 °F 71% 29.96 in 10.0 mi SSE 9.2 mph - N/A   Clear
2:53 AM 71.1 °F - 62.1 °F 73% 29.95 in 10.0 mi SSE 11.5 mph - N/A   Partly Cloudy
3:53 AM 70.0 °F - 62.1 °F 76% 29.93 in 10.0 mi SSE 10.4 mph - N/A   Clear
4:53 AM 70.0 °F - 61.0 °F 73% 29.90 in 10.0 mi SSE 13.8 mph 20.7 mph N/A   Clear
5:48 AM 68.0 °F - 62.6 °F 83% 29.94 in 7.0 mi SSE 13.8 mph - 0.06 in Rain , Thunderstorm Light Thunderstorms and Rain
5:53 AM 66.9 °F - 62.1 °F 84% 29.92 in 6.0 mi SE 13.8 mph - 0.07 in Rain , Thunderstorm Thunderstorms and Rain
6:17 AM 66.9 °F - 62.1 °F 84% 29.94 in 10.0 mi SSE 10.4 mph - 0.01 in Thunderstorm Partly Cloudy
6:26 AM 66.9 °F - 62.1 °F 84% 29.93 in 10.0 mi SSE 10.4 mph - 0.01 in   Partly Cloudy
6:53 AM 66.9 °F - 61.0 °F 81% 29.91 in 10.0 mi SSE 11.5 mph - 0.01 in   Clear
7:53 AM 68.0 °F - 61.0 °F 78% 29.94 in 10.0 mi SE 9.2 mph - N/A   Clear
8:53 AM 70.0 °F - 62.1 °F 76% 29.94 in 10.0 mi SSE 15.0 mph - N/A   Partly Cloudy
9:53 AM 71.1 °F - 61.0 °F 70% 29.95 in 10.0 mi SSE 11.5 mph - N/A   Partly Cloudy
10:53 AM 75.0 °F - 62.1 °F 64% 29.92 in 10.0 mi South 16.1 mph - N/A   Clear
11:53 AM 80.1 °F 81.7 °F 64.0 °F 58% 29.92 in 10.0 mi South 12.7 mph 18.4 mph N/A   Clear
12:53 PM 84.0 °F 85.4 °F 64.0 °F 51% 29.90 in 10.0 mi SSE 12.7 mph - N/A   Partly Cloudy
1:53 PM 84.9 °F 86.1 °F 64.0 °F 49% 29.89 in 10.0 mi SSE 10.4 mph 19.6 mph N/A   Clear
2:53 PM 86.0 °F 87.6 °F 64.9 °F 49% 29.88 in 10.0 mi SSE 11.5 mph - N/A   Clear
3:53 PM 87.1 °F 89.2 °F 66.0 °F 49% 29.88 in 10.0 mi SSE 10.4 mph - N/A   Clear
4:53 PM 88.0 °F 90.3 °F 66.0 °F 48% 29.88 in 10.0 mi SSE 13.8 mph 19.6 mph N/A   Clear
5:53 PM 88.0 °F 90.3 °F 66.0 °F 48% 29.88 in 10.0 mi South 11.5 mph 17.3 mph N/A   Clear
6:53 PM 87.1 °F 88.9 °F 64.9 °F 48% 29.88 in 10.0 mi South 11.5 mph - N/A   Clear
7:53 PM 84.0 °F 86.3 °F 66.0 °F 55% 29.88 in 10.0 mi SSE 8.1 mph - N/A   Clear
8:53 PM 80.1 °F 82.3 °F 66.9 °F 64% 29.88 in 10.0 mi SSE 11.5 mph - N/A   Clear
9:53 PM 77.0 °F - 66.9 °F 71% 29.90 in 10.0 mi SSE 10.4 mph - N/A   Clear
10:53 PM 75.9 °F - 68.0 °F 76% 29.90 in 10.0 mi SSE 10.4 mph - N/A   Clear
11:53 PM 75.9 °F - 68.0 °F 76% 29.89 in 10.0 mi South 11.5 mph - N/A   Clear